Showing default

ORBCOMM-X, 21576

Orbit data source: Space-Track

ORBCOMM-X, 21576 is a payload satellite owned by Orbcomm (US) in SSO that was launched on Wed, 17 Jul 1991 UTC via an ARIANE 40 launch vehicle from the French Guiana (FRGUI). Payload-class satellites include a variety of spacecraft equipped with specific instruments for various scientific and technological missions. These include communications satellites like Starlink; space stations such as the ISS; scientific satellites like the Hubble; Earth observation satellites from companies like Planet Labs, Umbra, and HawkEye 360; GPS; miniature CubeSats for education and research; and military/defense satellites.

Loading next visibility...
Identifier
21576, 1991-050C
Orbit
SSO
Country
Flag of USUS
Related business
Manufacturer
Fairchild
Mission
Non-operational Commercial Communications
Bus & Motor
ORBCOMM-X, Unknown motor
Mass
17 kg wet, 17 kg dry
Launch date (UTC)
1991-07-17 (35 years ago)
Launch vehicle
ARIANE 40
Launch site
French Guiana (FRGUI)
Object type
Payload
Rocket body
Debris
Shape & HBR
Hex Box, 0.3 m
Radar Cross Section
0.350 m², Medium (>0.1 m² and < 1m²)

Expand to show TLE details & history
Last TLE update: 2 days ago

TLE from 2 days ago
0 ORBCOMM-X
1 21576U 91050C   26171.46549885  .00000191  00000-0  69043-4 0  9999
2 21576  98.2956 234.6391 0004422 138.1503 222.0026 14.43583276835242
Epoch: 2026-06-20T11:10Z
TLE epoch observation values (Epoch: 2026-06-20T11:10:19.100Z)
Latitude
-0.00008°
Longitude
158.3798°
Altitude
751.986 km
Speed
7.477 km/s
True Right ascension
15h 38m 33s
True Declination
0° 00' 00"
Sunlit
Object was in full shadow at epoch
Visualization orbit readout
Latitude
Unknown
Longitude
Unknown
Altitude
Unknown
Speed
Unknown
Apparent Right ascension
Unknown
Apparent Declination
Unknown
Sunlit
N/A
Visualization observer readout
Local Sidereal Time
23:08:35
Azimuth
Unknown
Elevation
Unknown
Doppler factor
Unknown
Orbital elements
Apogee altitude
746.941 km
Perigee altitude
740.642 km
Semi-major axis
7,121.928 km
Eccentricity
0.00044
Inclination
98.2956°
RAAN
234.6391°
Arg. of periapsis
138.1503°
True anomaly
221.96871°
Mean anomaly
222.0026°
Eccentric anomaly
221.98565°
Mean motion
3.61116 °/min
Orbital period
99.69 mins
BSTAR
0.000069043
Loading maneuver chart data...
Computing Atmospheric mass density...
Loading historical data...
Loading historical data...
Loading historical data...
Loading historical data...
Loading historical data...
Loading historical data...
Loading historical data...

Documentation

Showing up to 5 results
|